Location: 3 Angels Observatory
(30.5437°N, 88.5068°W)
Time: 05:51:51
(UTC-05:00)

Amateur Radio Satellites - All Passes

Search period start: 25 July 2017 05:21
Search period end: 26 July 2017 05:21
Location: 3 Angels Observatory, 30.5437°N, 88.5068°W

Satellite Date Start Highest point End Downlink Frequencies (MHz)
Time Altitude Azimuth
SO-50 25 Jul 05:33:36 05:37:32 29° 112° (ESE) 05:41:28 436.795
ITAMSAT 1 25 Jul 05:39:39 05:42:52 17° 293° (WNW) 05:46:05 435.822/435.867
ISS 25 Jul 05:47:44 05:49:07 12° 235° (SW) 05:50:30 437.550
XW-2C 25 Jul 05:55:49 05:56:17 10° 94° (E) 05:56:44 145.795 - 145.815
YUBILEINY 25 Jul 06:02:51 06:11:23 55° 81° (E) 06:19:49 435.215
DOVE 4 25 Jul 06:14:53 06:20:07 73° 101° (E) 06:25:05 437.250
KAITUO 1B 25 Jul 06:16:23 06:18:36 15° 95° (E) 06:20:48 145.475/437.950
LilacSat-2 25 Jul 06:16:45 06:19:48 23° 97° (E) 06:22:50 437.200
KKS-1 25 Jul 06:19:13 06:21:22 13° 266° (W) 06:23:32 437.445
AO-7 25 Jul 06:25:54 06:31:02 18° 302° (WNW) 06:36:11 .
XW-2F 25 Jul 06:31:00 06:34:22 31° 98° (E) 06:37:44 145.980 - 146.000
SRMSAT 25 Jul 06:40:35 06:44:36 19° 194° (SSW) 06:48:35 437.500
STARS 25 Jul 06:48:29 06:51:04 15° 265° (W) 06:53:40 437.465
XW-2D 25 Jul 06:59:23 07:03:11 87° 275° (W) 07:06:56 145.860 - 145.880
XW-2B 25 Jul 07:09:29 07:13:13 64° 283° (WNW) 07:16:58 145.730 - 145.750
SO-50 25 Jul 07:14:26 07:17:57 22° 305° (NW) 07:21:27 436.795
STRAND 1 25 Jul 07:20:57 07:25:58 55° 74° (ENE) 07:30:59 437.568
CUTE-I 25 Jul 07:25:23 07:30:44 72° 285° (WNW) 07:36:01 437.470
XW-2C 25 Jul 07:27:05 07:30:32 35° 285° (WNW) 07:33:59 145.795 - 145.815
CUBEBUG 2 25 Jul 07:30:30 07:31:50 11° 93° (E) 07:33:08 437.445
HO-68 25 Jul 07:31:48 07:38:18 37° 99° (E) 07:44:46 435.675
NUDT-PHONESAT 25 Jul 07:34:41 07:38:06 37° 285° (WNW) 07:41:32 437.300
CUTE 1.7 + AOD 2 25 Jul 07:48:00 07:52:05 45° 99° (E) 07:56:10 437.475
KAITUO 1B 25 Jul 07:49:30 07:52:31 24° 287° (WNW) 07:55:32 145.475/437.950
LilacSat-2 25 Jul 07:51:25 07:53:51 17° 289° (WNW) 07:56:17 437.200
DOVE 4 25 Jul 07:56:01 07:57:00 11° 295° (WNW) 07:57:59 437.250
SEEDS 25 Jul 08:00:13 08:04:09 38° 98° (E) 08:08:06 437.485
YUBILEINY 25 Jul 08:00:52 08:07:31 25° 276° (W) 08:14:10 435.215
XW-2F 25 Jul 08:06:41 08:08:09 12° 290° (WNW) 08:09:36 145.980 - 146.000
FO-29 25 Jul 08:07:25 08:11:09 14° 60° (ENE) 08:14:55 435.910
UWE-3 25 Jul 08:26:12 08:29:56 32° 98° (E) 08:33:39 435.000/436.395/437.385
ZACube-1 25 Jul 08:40:00 08:43:23 24° 97° (E) 08:46:46 437.345
AAUSAT CUBESAT 2 25 Jul 08:43:24 08:47:30 56° 100° (E) 08:51:36 437.432
XW-2A 25 Jul 08:51:19 08:54:20 33° 285° (WNW) 08:57:20 145.665 - 145.685
STRAND 1 25 Jul 09:03:07 09:05:22 13° 266° (W) 09:07:37 437.568
CUBEBUG 2 25 Jul 09:04:40 09:08:35 39° 286° (WNW) 09:12:26 437.445
Oscar 11 25 Jul 09:05:35 09:09:31 34° 98° (E) 09:13:27 .
AO-73 25 Jul 09:19:30 09:23:38 73° 102° (ESE) 09:27:45 145.935
HO-68 25 Jul 09:19:36 09:25:49 34° 293° (WNW) 09:32:03 435.675
CUTE 1.7 + AOD 2 25 Jul 09:26:11 09:27:27 11° 292° (WNW) 09:28:42 437.475
TIGRISAT 25 Jul 09:27:04 09:30:44 23° 71° (ENE) 09:34:21 435.000
M-CUBED/EXP-1 PRIME 25 Jul 09:36:33 09:37:57 12° 62° (ENE) 09:39:23 437.505
SEEDS 25 Jul 09:37:28 09:39:27 13° 291° (WNW) 09:41:25 437.485
DELFI C3 25 Jul 09:45:18 09:48:24 21° 96° (E) 09:51:30 145.870
FO-29 25 Jul 09:47:28 09:54:54 85° 76° (ENE) 10:02:49 435.910
UWE-3 25 Jul 10:03:53 10:06:04 14° 291° (WNW) 10:08:14 435.000/436.395/437.385
EO-88 25 Jul 10:09:52 10:12:54 25° 97° (E) 10:15:56 145.990 - 145.960
PRISM 25 Jul 10:12:35 10:16:38 73° 77° (ENE) 10:20:44 437.425
NO-84 25 Jul 10:14:04 10:16:49 44° 127° (SE) 10:19:45 435.350 FM
ZACube-1 25 Jul 10:16:35 10:19:27 18° 289° (WNW) 10:22:20 437.345
UNISAT 6 25 Jul 10:18:14 10:22:54 79° 257° (WSW) 10:27:32 437.425
Oscar 11 25 Jul 10:42:51 10:45:18 15° 291° (WNW) 10:47:45 .
QB50P2 25 Jul 10:55:22 10:56:58 12° 68° (ENE) 10:58:34 145.880/145.840
TIGRISAT 25 Jul 11:03:21 11:07:13 26° 263° (W) 11:11:04 435.000
EO-79 25 Jul 11:06:26 11:08:51 15° 69° (ENE) 11:11:17 145.935-145.965
NANOSAT C BR1 25 Jul 11:06:44 11:08:46 13° 69° (ENE) 11:10:47 145.865
M-CUBED/EXP-1 PRIME 25 Jul 11:08:49 11:11:59 32° 258° (WSW) 11:15:21 437.505
DELFI C3 25 Jul 11:20:03 11:22:59 20° 288° (WNW) 11:25:55 145.870
AIST 2D 25 Jul 11:25:02 11:28:29 63° 77° (ENE) 11:31:55 435.315
FO-29 25 Jul 11:36:48 11:40:36 14° 270° (W) 11:44:30 435.910
EO-88 25 Jul 11:44:23 11:46:18 14° 289° (WNW) 11:48:12 145.990 - 145.960
BEESAT 3 25 Jul 11:45:59 11:49:14 25° 111° (ESE) 11:52:32 437.485
LO-87 25 Jul 11:46:21 11:49:53 57° 100° (E) 11:53:23 145.935 - 145.965
ESTCUBE 1 25 Jul 11:49:30 11:53:38 34° 98° (E) 11:57:46 437.505/2401.250
NO-84 25 Jul 11:54:20 11:54:32 10° 323° (NW) 11:54:42 435.350 FM
DUCHIFAT 1 25 Jul 12:12:02 12:16:16 79° 77° (ENE) 12:20:30 145.980
POLYITAN 1 25 Jul 12:14:57 12:19:12 73° 258° (WSW) 12:23:29 437.675
BEESAT 2 25 Jul 12:26:36 12:29:42 22° 110° (ESE) 12:32:50 435.950
QB50P2 25 Jul 12:28:15 12:32:19 43° 261° (W) 12:36:24 145.880/145.840
VELOX 1 25 Jul 12:34:32 12:37:56 21° 96° (E) 12:41:18 145.980
BUGSAT 1 25 Jul 12:39:49 12:43:48 42° 74° (ENE) 12:47:48 437.445
NANOSAT C BR1 25 Jul 12:40:07 12:44:05 38° 261° (W) 12:48:03 145.865
EO-79 25 Jul 12:40:24 12:44:16 34° 262° (W) 12:48:10 145.935-145.965
AO-85 25 Jul 12:46:05 12:50:03 52° 299° (WNW) 12:53:54 145.980
Oscar 19 25 Jul 13:18:54 13:23:46 46° 73° (ENE) 13:28:39 437.125/150
SPROUT 25 Jul 13:22:14 13:26:30 77° 282° (WNW) 13:30:42 437.525
UKube-1 25 Jul 13:22:20 13:24:10 12° 94° (E) 13:26:01 .
BEESAT 3 25 Jul 13:23:47 13:26:43 20° 305° (NW) 13:29:42 437.485
ESTCUBE 1 25 Jul 13:27:16 13:30:06 17° 291° (WNW) 13:32:57 437.505/2401.250
AO-7 25 Jul 13:37:59 13:40:15 11° 53° (NE) 13:42:30 .
Gurwin Techsat 1B 25 Jul 13:47:24 13:52:35 57° 74° (ENE) 13:57:47 435.225
BEESAT 2 25 Jul 14:04:13 14:07:19 21° 304° (NW) 14:10:27 435.950
O/OREOS (USA 219) 25 Jul 14:06:11 14:08:10 13° 99° (E) 14:10:07 437.305
PCSat 25 Jul 14:07:07 14:11:43 28° 58° (ENE) 14:16:17 145.827
VELOX 1 25 Jul 14:10:36 14:14:15 25° 289° (WNW) 14:17:54 145.980
DX 1 25 Jul 14:14:09 14:18:33 86° 282° (WNW) 14:22:55 434.975-435.025
BUGSAT 1 25 Jul 14:17:51 14:19:16 11° 266° (W) 14:20:40 437.445
50 SAT 25 Jul 14:19:13 14:22:21 33° 285° (WNW) 14:25:26 437.505
UKube-1 25 Jul 14:56:15 15:00:17 40° 286° (WNW) 15:04:19 .
Oscar 19 25 Jul 15:00:22 15:03:14 15° 266° (W) 15:06:06 437.125/150
BEESAT 25 Jul 15:03:12 15:06:19 17° 96° (E) 15:09:25 436.000
ITAMSAT 1 25 Jul 15:11:15 15:16:06 40° 72° (ENE) 15:20:58 435.822/435.867
RS-15 25 Jul 15:12:53 15:24:31 58° 110° (ESE) 15:36:26 29.354- 29.394
ITUPSAT 1 25 Jul 15:16:05 15:19:55 24° 97° (E) 15:23:44 437.325
AO-7 25 Jul 15:23:13 15:31:29 69° 70° (ENE) 15:39:47 .
Gurwin Techsat 1B 25 Jul 15:30:24 15:32:46 13° 267° (W) 15:35:08 435.225
O/OREOS (USA 219) 25 Jul 15:42:53 15:47:07 40° 292° (WNW) 15:51:21 437.305
SO-50 25 Jul 15:49:32 15:54:05 71° 62° (ENE) 15:58:40 436.795
PCSat 25 Jul 15:50:19 15:55:01 31° 252° (WSW) 15:59:41 145.827
MOZHAYETS 4 25 Jul 15:58:57 16:03:28 58° 101° (E) 16:07:57
CUBESAT XI-V 25 Jul 16:35:19 16:39:07 25° 97° (E) 16:42:56 437.345
KKS-1 25 Jul 16:39:00 16:40:45 12° 94° (E) 16:42:30 437.445
BEESAT 25 Jul 16:39:48 16:44:06 35° 288° (WNW) 16:48:23 436.000
ITAMSAT 1 25 Jul 16:52:02 16:55:37 19° 264° (W) 16:59:13 435.822/435.867
ITUPSAT 1 25 Jul 16:53:42 16:57:37 26° 289° (WNW) 17:01:30 437.325
CUTE-I 25 Jul 17:06:28 17:07:24 10° 64° (ENE) 17:08:20 437.470
DOVE 4 25 Jul 17:14:14 17:18:38 37° 72° (ENE) 17:23:16 437.250
AO-7 25 Jul 17:18:59 17:24:40 20° 264° (W) 17:30:23 .
RS-15 25 Jul 17:26:19 17:37:23 39° 309° (NW) 17:48:41 29.354- 29.394
XW-2D 25 Jul 17:35:55 17:38:35 19° 72° (ENE) 17:41:14 145.860 - 145.880
MOZHAYETS 4 25 Jul 17:39:30 17:40:03 10° 293° (WNW) 17:40:36
XW-2B 25 Jul 17:45:34 17:48:37 24° 73° (ENE) 17:51:39 145.730 - 145.750
HO-68 25 Jul 17:57:06 18:00:57 15° 61° (ENE) 18:04:47 435.675
XW-2C 25 Jul 18:02:22 18:05:55 42° 75° (ENE) 18:09:28 145.795 - 145.815
NUDT-PHONESAT 25 Jul 18:08:05 18:11:26 34° 75° (ENE) 18:14:48 437.300
CUBESAT XI-V 25 Jul 18:12:34 18:16:20 24° 289° (WNW) 18:20:05 437.345
KKS-1 25 Jul 18:13:12 18:17:26 44° 286° (WNW) 18:21:39 437.445
KAITUO 1B 25 Jul 18:23:00 18:26:38 61° 77° (ENE) 18:30:17 145.475/437.950
LilacSat-2 25 Jul 18:26:10 18:29:56 78° 259° (W) 18:33:42 437.200
NO-84 25 Jul 18:28:16 18:31:53 32° 46° (NE) 18:35:42 435.350 FM
CUTE 1.7 + AOD 2 25 Jul 18:36:20 18:38:52 16° 70° (ENE) 18:41:25 437.475
XW-2F 25 Jul 18:39:38 18:43:18 55° 260° (W) 18:46:58 145.980 - 146.000
STARS 25 Jul 18:41:18 18:45:34 53° 285° (WNW) 18:49:49 437.465
CUTE-I 25 Jul 18:41:21 18:46:42 77° 257° (WSW) 18:52:06 437.470
SEEDS 25 Jul 18:48:07 18:50:01 13° 69° (ENE) 18:51:54 437.485
DOVE 4 25 Jul 18:53:13 18:56:24 18° 267° (W) 18:59:42 437.250
YUBILEINY 25 Jul 18:55:57 19:04:45 75° 93° (E) 19:13:33 435.215
XW-2D 25 Jul 19:09:50 19:12:36 19° 264° (W) 19:15:22 145.860 - 145.880
ISS 25 Jul 19:10:13 19:12:26 17° 127° (SE) 19:14:38 437.550
XW-2A 25 Jul 19:16:59 19:19:49 25° 74° (ENE) 19:22:39 145.665 - 145.685
UWE-3 25 Jul 19:18:29 19:21:11 16° 70° (ENE) 19:23:51 435.000/436.395/437.385
XW-2B 25 Jul 19:20:30 19:22:43 15° 265° (W) 19:24:56 145.730 - 145.750
Tancredo 1 25 Jul 19:23:17 19:26:12 74° 314° (NW) 19:29:07 437.200
AAUSAT CUBESAT 2 25 Jul 19:28:55 19:31:38 17° 71° (ENE) 19:34:22 437.432
ZACube-1 25 Jul 19:32:26 19:33:37 11° 68° (ENE) 19:34:48 437.345
STRAND 1 25 Jul 19:37:34 19:41:59 29° 98° (E) 19:46:22 437.568
HO-68 25 Jul 19:40:35 19:47:47 81° 255° (WSW) 19:54:59 435.675
nSIGHT-1 25 Jul 19:50:42 19:53:53 61° 132° (SE) 19:57:04 .
RS-15 25 Jul 19:52:09 19:54:59 11° 340° (NNW) 19:57:49 29.354- 29.394
CUBEBUG 2 25 Jul 19:55:49 20:00:32 80° 78° (ENE) 20:05:11 437.445
Oscar 11 25 Jul 19:56:25 19:58:33 14° 69° (ENE) 20:00:41 .
NO-84 25 Jul 20:06:02 20:09:15 22° 237° (WSW) 20:12:35 435.350 FM
AO-73 25 Jul 20:09:24 20:13:11 28° 73° (ENE) 20:16:54 145.935
CUTE 1.7 + AOD 2 25 Jul 20:10:43 20:14:24 30° 262° (W) 20:18:07 437.475
SEEDS 25 Jul 20:21:28 20:25:18 36° 262° (W) 20:29:09 437.485
ISS 25 Jul 20:45:52 20:48:42 28° 320° (NW) 20:51:33 437.550
XW-2A 25 Jul 20:51:34 20:52:31 11° 265° (W) 20:53:29 145.665 - 145.685
UWE-3 25 Jul 20:53:00 20:57:16 38° 261° (W) 21:01:29 435.000/436.395/437.385
YUBILEINY 25 Jul 20:56:40 21:02:15 18° 289° (WNW) 21:07:54 435.215
AAUSAT CUBESAT 2 25 Jul 21:03:25 21:06:51 26° 263° (W) 21:10:18 437.432
ZACube-1 25 Jul 21:05:04 21:09:25 51° 260° (W) 21:13:42 437.345
FO-29 25 Jul 21:07:24 21:10:55 15° 89° (E) 21:14:15 435.910
STRAND 1 25 Jul 21:16:54 21:20:57 24° 291° (WNW) 21:25:00 437.568
AO-85 25 Jul 21:22:03 21:25:38 25° 58° (ENE) 21:29:24 145.980
nSIGHT-1 25 Jul 21:29:28 21:30:33 11° 327° (NNW) 21:31:38 .
Oscar 11 25 Jul 21:30:18 21:34:18 37° 261° (W) 21:38:18 .
BEESAT 3 25 Jul 21:44:36 21:48:19 38° 59° (ENE) 21:51:59 437.485
AO-73 25 Jul 21:46:11 21:49:20 19° 264° (W) 21:52:27 145.935
DELFI C3 25 Jul 21:58:27 22:02:22 79° 258° (WSW) 22:06:18 145.870
PRISM 25 Jul 22:00:37 22:03:08 16° 95° (E) 22:05:37 437.425
JUGNU 25 Jul 22:10:38 22:14:44 19° 166° (SSE) 22:18:51 437.505
RS-15 25 Jul 22:13:36 22:16:27 11° 21° (NNE) 22:19:15 29.354- 29.394
EO-88 25 Jul 22:14:38 22:18:16 78° 259° (W) 22:21:54 145.990 - 145.960
UNISAT 6 25 Jul 22:16:02 22:19:52 31° 98° (E) 22:23:38 437.425
BEESAT 2 25 Jul 22:26:06 22:29:51 35° 59° (ENE) 22:33:32 435.950
ESTCUBE 1 25 Jul 22:44:37 22:47:25 17° 69° (ENE) 22:50:13 437.505/2401.250
FO-29 25 Jul 22:49:49 22:56:37 65° 287° (WNW) 23:02:35 435.910
M-CUBED/EXP-1 PRIME 25 Jul 22:51:47 22:55:45 28° 101° (E) 22:59:42 437.505
TIGRISAT 25 Jul 22:59:41 23:03:58 77° 283° (WNW) 23:08:11 435.000
AO-85 25 Jul 23:02:19 23:05:54 25° 248° (WSW) 23:09:44 145.980
BEESAT 3 25 Jul 23:24:04 23:25:28 12° 252° (WSW) 23:26:51 437.485
PRISM 25 Jul 23:34:44 23:38:23 30° 287° (WNW) 23:42:00 437.425
LO-87 25 Jul 23:49:54 23:53:13 35° 261° (W) 23:56:35 145.935 - 145.965
UNISAT 6 25 Jul 23:53:41 23:56:15 16° 291° (WNW) 23:58:50 437.425
JUGNU 25 Jul 23:58:11 00:03:14 28° 175° (S) 00:08:17 437.505
DUCHIFAT 1 26 Jul 00:02:29 00:05:26 19° 96° (E) 00:08:21 145.980
BEESAT 2 26 Jul 00:05:18 00:07:13 13° 252° (WSW) 00:09:06 435.950
POLYITAN 1 26 Jul 00:05:45 00:09:18 27° 97° (E) 00:12:50 437.675
SPROUT 26 Jul 00:09:46 00:13:43 37° 74° (ENE) 00:17:41 437.525
QB50P2 26 Jul 00:18:28 00:22:30 44° 99° (E) 00:26:29 145.880/145.840
ESTCUBE 1 26 Jul 00:19:51 00:23:53 33° 262° (W) 00:27:57 437.505/2401.250
O/OREOS (USA 219) 26 Jul 00:21:50 00:22:53 11° 60° (ENE) 00:23:56 437.305
RS-15 26 Jul 00:22:48 00:33:52 40° 51° (NE) 00:44:20 29.354- 29.394
M-CUBED/EXP-1 PRIME 26 Jul 00:26:14 00:29:56 24° 294° (WNW) 00:33:39 437.505
AIST 2D 26 Jul 00:28:27 00:31:47 42° 284° (WNW) 00:35:06 435.315
NANOSAT C BR1 26 Jul 00:29:37 00:33:40 48° 100° (E) 00:37:42 145.865
EO-79 26 Jul 00:30:07 00:34:14 56° 100° (E) 00:38:20 145.935-145.965
50 SAT 26 Jul 00:45:00 00:47:54 27° 74° (ENE) 00:50:49 437.505
VELOX 1 26 Jul 01:01:10 01:05:30 58° 259° (W) 01:09:53 145.980
SRMSAT 26 Jul 01:01:31 01:05:40 19° 166° (SSE) 01:09:48 437.500
DX 1 26 Jul 01:04:01 01:08:02 38° 73° (ENE) 01:12:05 434.975-435.025
Oscar 19 26 Jul 01:36:28 01:40:46 26° 97° (E) 01:45:04 437.125/150
DUCHIFAT 1 26 Jul 01:37:36 01:41:00 25° 288° (WNW) 01:44:24 145.980
POLYITAN 1 26 Jul 01:42:01 01:44:50 18° 290° (WNW) 01:47:40 437.675
UKube-1 26 Jul 01:44:24 01:48:42 79° 75° (ENE) 01:53:01 .
JUGNU 26 Jul 01:46:47 01:51:48 28° 186° (S) 01:56:47 437.505
SPROUT 26 Jul 01:47:34 01:49:41 13° 266° (W) 01:51:47 437.525
QB50P2 26 Jul 01:56:33 01:57:50 11° 292° (WNW) 01:59:06 145.880/145.840
O/OREOS (USA 219) 26 Jul 01:58:11 02:02:34 54° 254° (WSW) 02:06:59 437.305
BUGSAT 1 26 Jul 02:02:09 02:06:05 48° 285° (WNW) 02:09:57 437.445
BEESAT 26 Jul 02:06:02 02:07:25 11° 66° (ENE) 02:08:49 436.000
NANOSAT C BR1 26 Jul 02:08:45 02:08:52 10° 293° (WNW) 02:08:59 145.865
Gurwin Techsat 1B 26 Jul 02:09:33 02:14:25 36° 98° (E) 02:19:15 435.225
ITUPSAT 1 26 Jul 02:18:21 02:21:11 16° 68° (ENE) 02:24:00 437.325
50 SAT 26 Jul 02:20:10 02:20:37 10° 266° (W) 02:21:05 437.505
RS-15 26 Jul 02:35:12 02:46:31 53° 251° (WSW) 02:57:16 29.354- 29.394
DX 1 26 Jul 02:42:12 02:44:18 13° 266° (W) 02:46:24 434.975-435.025
SRMSAT 26 Jul 02:49:19 02:54:19 28° 176° (S) 02:59:18 437.500
MOZHAYETS 4 26 Jul 02:55:31 02:59:25 28° 72° (ENE) 03:03:19
Oscar 19 26 Jul 03:15:36 03:19:57 28° 290° (WNW) 03:24:18 437.125/150
ISS 26 Jul 03:18:03 03:20:30 19° 38° (NE) 03:22:58 437.550
Tancredo 1 26 Jul 03:26:11 03:29:08 85° 50° (NE) 03:32:05 437.200
ITAMSAT 1 26 Jul 03:30:22 03:34:22 22° 97° (E) 03:38:20 435.822/435.867
AO-7 26 Jul 03:31:58 03:39:13 32° 99° (E) 03:46:23 .
CUBESAT XI-V 26 Jul 03:34:46 03:36:50 13° 68° (ENE) 03:38:52 437.345
JUGNU 26 Jul 03:36:22 03:40:16 18° 195° (SSW) 03:44:09 437.505
BEESAT 26 Jul 03:39:56 03:44:37 59° 259° (W) 03:49:20 436.000
Gurwin Techsat 1B 26 Jul 03:50:05 03:54:04 22° 292° (WNW) 03:58:02 435.225
ITUPSAT 1 26 Jul 03:54:05 03:58:36 41° 260° (W) 04:03:07 437.325
nSIGHT-1 26 Jul 03:58:44 04:01:55 57° 44° (NE) 04:05:06 .
MOZHAYETS 4 26 Jul 04:33:09 04:36:30 20° 264° (W) 04:39:52
SRMSAT 26 Jul 04:38:05 04:43:00 27° 186° (S) 04:47:55 437.500
PCSat 26 Jul 04:42:12 04:47:36 78° 113° (ESE) 04:53:02 145.827
ISS 26 Jul 04:54:09 04:56:57 26° 231° (SW) 04:59:45 437.550
KKS-1 26 Jul 05:04:58 05:09:25 82° 77° (ENE) 05:13:55 437.445
ITAMSAT 1 26 Jul 05:09:11 05:13:47 33° 289° (WNW) 05:18:22 435.822/435.867
CUBESAT XI-V 26 Jul 05:09:20 05:13:43 46° 260° (W) 05:18:09 437.345
